www.pogodaiklimat.ru

Погода и климат >> Архив погоды >> Парагвай >> Каасапа


ПОГОДА в Каасапе

  • Прогноз погоды в Каасапе
  • Монитор погоды в Каасапе

АРХИВ ПОГОДЫ в Каасапе

Время (UTC), дата Ветер
(напр.,м/с)
 
Видим.   Явления Облачность Т
(С)
Тd
(С)
f
(%)
Тe
(С)
Тes
(С)
Комфортность P
(гПа)
Po
(гПа)
Тmin
(С)
Tmax
(С)
R
(мм)
R24
(мм)
S
(см)
21 17.05 В 4 20 км 4/4 800 м
[Sc]
+24.2 +17.4 66 +28 +28 душно 1014.7 998.3
00 18.05 В 3 20 км ясно +20.8 +17.8 83 +25 +25 комфорт 1015.1 998.6 +27.0
03 18.05 В 3 20 км ясно +19.8 +18.9 95 +23 +23 комфорт 1015.1 998.6
06 18.05 штиль 0 20 км ясно +18.0 +16.3 90 +18 +18 1015.1 998.6
09 18.05 СВ 5 20 км ясно +19.0 +17.3 90 +20 +20 1015.1 998.6
12 18.05 В 6 20 км 3/0 1500 м
[Ac trans]
+20.0 +16.4 80 +22 +23 комфорт 1016.7 1000.0 +18.0
15 18.05 В 5 20 км 3/0 1500 м
[Ac trans]
+24.8 +17.2 63 +29 +33 душно 1015.5 999.1
18 18.05 В 6 20 км ясно +27.0 +17.7 57 +31 +34 душно 1014.8 998.5
21 18.05 В 3 20 км 1/0 1500 м
[Ac cast]
+26.0 +19.6 68 +32 +32 очень
душно
1014.4 998.1
00 19.05 штиль 0 20 км ясно +20.4 +18.3 88 +24 +24 комфорт 1015.9 999.3 +27.3
03 19.05 В 4 20 км ясно +19.4 +17.2 87 +21 +21 комфорт 1016.6 999.9
06 19.05 СВ 4 20 км 8/0 1500 м
[Ac und]
+19.0 +17.2 89 +20 +20 1016.0 999.3
09 19.05 В 6 20 км 8/0
[Cs]
+18.6 +15.9 84 +19 +19 1014.6 997.9
12 19.05 В 6 20 км 10/0 1500 м
[Ac und Cs]
+20.0 +18.1 89 +23 +23 комфорт 1015.0 998.4 +18.6
15 19.05 СВ 6 20 км 10/0 1500 м
[Ac As]
+23.8 +17.6 68 +28 +29 душно 1015.5 999.1
18 19.05 З 3 20 км 10/0 1500 м
[Ac As]
+21.8 +19.2 85 +27 +29 душно 1015.2 998.7
21 19.05 ЮВ 3 20 км 10/0 1500 м
[Ac As]
+20.0 +18.1 89 +23 +23 комфорт 1015.2 998.7
00 20.05 В 4 20 км 10/0 1500 м
[Ac As]
+20.2 +19.9 98 +24 +24 комфорт 1014.9 998.3 +25.0
03 20.05 В 4 20 км 10/0 1500 м
[Ac As]
+19.0 +18.7 98 +21 +21 комфорт 1014.4 998.3
09 20.05 В 4 20 км ясно +18.4 +16.3 88 +19 +19 1013.6 996.8
12 20.05 В 3 20 км 10/0 1500 м
[Ac und]
+20.2 +18.5 90 +24 +24 комфорт 1014.3 997.7 +18.4
15 20.05 СВ 6 20 км 8/0 1500 м
[Ac und Cs]
+27.0 +19.4 63 +33 +34 очень
душно
1014.1 997.8
18 20.05 С 5 20 км 9/1 1000 м
[Cb calv Ac und]
+26.6 +19.5 65 +32 +33 очень
душно
1011.6 995.3
21 20.05 СВ 4 20 км 10/0 1500 м
[Ac As]
+25.6 +20.1 72 +32 +32 очень
душно
1010.7 994.5
00 21.05 В 4 20 км 3/0 1500 м
[Ac trans]
+23.4 +18.2 73 +29 +29 душно 1016.2 994.7 +28.0
03 21.05 В 4 20 км 10/0
[Ac As]
+22.0 +18.8 82 +27 +27 душно 1016.2 994.7
06 21.05 В 4 20 км 10/0
[Cs]
+21.0 +19.0 88 +26 +26 душно 1016.2 994.7
12 21.05 ЮВ 5 10 км гроза, ливневой дождь 10/10 450 м
[Cb cap]
+20.2 +20.0 99 +24 +24 комфорт 1013.2 996.6 +20.2 5
15 21.05 ЮВ 5 15 км слаб. дождь {гроза} 10/8 450 м
[Sc]
+20.6 +19.9 96 +25 +25 комфорт 1013.4 996.8 8
18 21.05 В 3 5000 м слаб. морось {дождь} 10/10 450 м
[St]
+20.8 +19.8 94 +26 +26 душно 1012.5 995.9 4
21 21.05 штиль 0 15 км слаб. дождь 10/10 600 м
[Sc]
+20.4 +19.9 97 +24 +24 комфорт 1012.3 995.7 5
00 22.05 штиль 0 10 км слаб. дождь 10/10 450 м
[Sc]
+20.0 +20.0 100 +23 +23 комфорт 1013.0 996.4 +23.4 1
03 22.05 штиль 0 10 км дымка {дождь} 10/10 300 м
[St]
+19.0 +19.0 100 +21 +21 комфорт 1013.6 996.9 0.3
06 22.05 Ю 4 10 км слаб. дождь 10/10 450 м
[Sc]
+18.0 +17.9 99 +18 +18 1014.2 997.4 0.3
09 22.05 Ю 4 10 км слаб. морось {дождь} 10/10 300 м
[St]
+17.6 +16.9 96 +17 +17 1014.2 997.4 1
12 22.05 Ю 4 20 км {морось} 10/10 300 м
[St]
+18.0 +17.9 99 +18 +18 1015.1 998.3 +17.6 20
15 22.05 ЮЗ 6 20 км в посл. час морось 10/10 300 м
[St]
+18.2 +17.9 98 +18 +18 1016.4 999.6 0.2
18 22.05 ЮЗ 5 20 км 10/10 700 м
[Sc]
+20.2 +18.3 89 +23 +23 комфорт 1013.5 996.9 0.2
21 22.05 ЮЗ 4 5000 м слаб. морось 10/10 300 м
[St]
+18.4 +17.7 96 +19 +19 1015.3 998.5 0.0
00 23.05 ЮЗ 4 20 км {морось} 10/10 600 м
[Sc]
+17.0 +16.9 99 +16 +16 1016.4 999.6 +21.0 0.7
03 23.05 штиль 0 20 км 10/0 1500 м
[Ac und]
+16.0 +15.7 98 +16 +16 1017.1 1000.1
06 23.05 СЗ 3 20 км 10/0 1500 м
[Ac und]
+17.0 +15.4 90 +17 +17 1016.4 999.6
09 23.05 СЗ 4 20 км 10/10 600 м
[Sc]
+17.0 +15.6 91 +16 +16 1015.5 998.7
12 23.05 ЮЗ 4 20 км {морось} 10/10 450 м
[Sc]
+16.2 +15.8 97 +15 +15 1017.3 1000.4 +16.0 0.6
15 23.05 ЮЗ 4 20 км {дождь} 10/10 450 м
[Sc]
+17.0 +16.7 98 +16 +16 1017.1 1000.2 2
18 23.05 ЮЗ 4 20 км {дождь} 10/10 450 м
[Sc]
+17.0 +16.7 98 +16 +16 1015.1 998.3 1
21 23.05 З 4 15 км слаб. дождь 10/4 450 м
[Sc Ac As]
+15.2 +14.8 97 +14 +14 1016.1 999.2 2
00 24.05 З 3 15 км слаб. морось {дождь} 10/10 300 м
[St]
+15.2 +15.0 99 +14 +14 1015.4 998.5 +17.0 3
03 24.05 СЗ 4 20 км 10/10 600 м
[Sc]
+14.2 +14.0 99 +13 +13 1015.4 998.5 0.4
06 24.05 штиль 0 20 км 10/10 600 м
[Sc]
+14.0 +12.8 92 +14 +14 1015.4 998.5
09 24.05 СЗ 6 20 км 10/4 600 м
[Sc Ac As]
+13.6 +12.1 91 +11 +11 1014.3 997.3
12 24.05 ЮЗ 6 20 км 10/10 450 м
[Sc]
+14.6 +13.7 94 +13 +13 1014.6 997.6 +13.6 12
15 24.05 ЮЗ 6 20 км в посл. час дождь 10/10 450 м
[Sc]
+16.6 +15.6 94 +15 +15 1016.6 999.8 2
18 24.05 ЮЗ 7 20 км 9/9 800 м
[Cu Sc]
+19.0 +13.7 71 +19 +20 1015.7 999.1

 

Местоположение метеостанции Каасапа (Парагвай): широта -26.18 долгота -56.35 высота над уровнем моря 500 м.

В архиве по умолчанию представлена погода в Каасапе за последнюю неделю. Архивные данные за месяц целиком и за предыдущие месяцы, начиная с января 2011 года, Вы можете получить, выбрав интересующий диапазон дат из раскрывающегося списка и нажав кнопку "Ввод!".


*Определитесь, кто Вы:
робот инопланетянин человек

Внимание! Время в таблицах - всемирное. Для получения местного времени необходимо прибавить поправку, которая равна -4 ч.

Смотрите также архив погоды в соседних городах и на ближайших метеорологических станциях:

Погода в Вильяррике (Парагвай) (48 км)
Погода в Куйкуйо (Парагвай) (63 км)
Погода в Коронель-Овьедо (Парагвай) (81 км)
Погода в Сан Хуан Батистута (Парагвай) (96 км)
Погода в Парагуари (Парагвай) (99 км)
Погода в Энкарнасьоне (Парагвай) (136 км)
Погода в Посадасе (Аргентина) (137 км)
Погода в Капитан Меса (Парагвай) (142 км)
Погода в Асунсьоне (Парагвай) (156 км)
Погода в Сан Эстанислао (Парагвай) (170 км)

Пояснения к столбцам:

Ветер - указаны скорость ветра в м/с - средняя за 10 мин, порывы в срок и между сроками (в фигурных скобках) и направление, откуда дует ветер: С - северный, СВ - северо-восточный, В - восточный, ЮВ - юго-восточный, Ю - южный, ЮЗ - юго-западный, З - западный, СЗ - северо-западный.
Видимость - горизонтальная дальность видимости в метрах или километрах. При видимости от 1 до 10 км при отсутствии осадков обычно наблюдается дымка, при ухудшении видимости до 1 км и менее - туман. В сухую погоду видимость может ухудшаться дымом, пылью или мглою.
Явления - указаны атмосферные явления, наблюдавшиеся в срок или в последний час перед сроком; фигурными скобками обозначены явления, наблюдавшиеся между сроками (за 1-3 часа до срока); квадратными скобками обозначены град или гололедные отложения с указанием их диаметра в мм.
Облачность - указаны через наклонную черту общая и нижняя облачность в баллах и высота нижней границы облаков в метрах; квадратными скобками обозначены формы облаков: Ci - перистые, Cs - перисто-слоистые, Cc - перисто-кучевые, Ac - высококучевые, As - высокослоистые, Sc - слоисто-кучевые, Ns - слоисто-дождевые, Cu - кучевые, Cb - кучево-дождевые. Подробнее классификацию облаков см. в Атласе облаков (PDF).
T - Температура воздуха - температура, измеренная на высоте 2 м над землей.
Td - Температура точки росы - температура, при понижении до которой содержащийся в воздухе водяной пар достигнет насыщения.
f - Относительная влажность воздуха - влажноcть воздуха, измеренная на высоте 2 м над землей.
Te - Эффективная температура - температура, которую ощущает одетый по сезону человек в тени. Характеристика душности погоды. При расчете учитывается влияние влажности воздуха и скорости ветра на теплоощущения человека.
Tes - Эффективная температура на солнце - температура, которую ощущает человек, с поправкой на солнечный нагрев. Характеристика знойности погоды. Зависит от высоты солнца над горизонтом, облачности и скорости ветра. Ночью, в пасмурную погоду, а также при ветре 12 м/с и более поправка равна нулю.
P - Атмосферное давление - приведенное к уровню моря атмосферное давление.
Po - Атмосферное давление - измеренное на уровне метеостанции атмосферное давление.
Tmin - Минимальная температура - минимум температуры воздуха на высоте 2 м над землей.
Tmax - Максимальная температура - максимум температуры воздуха на высоте 2 м над землей.
R - Количество осадков - Количество выпавших осадков за период времени, мм. При наведении курсора мыши на число - период времени, за который выпало указанное количество осадков.
R24 - Количество осадков - Количество выпавших осадков за 24 часа, мм.
S - Снежный покров - Высота снежного покрова, см. При наведении курсора мыши на число - состояние снежного покрова и степень покрытия местности в баллах.